GFSSGP_sfc_dewp_000.txt.gz
Dewpoint
65 58 62 65 58 55 48 48 50 50 49 48 48 47 48 52 54 54 62 58 59 68 71 73 76 76 74 74 74 74 74 74 74 75 74 74 74 74 74 74 74 73 73 73 73 73 73 72 72
64 58 65 61 53 45 45 45 46 48 48 50 46 44 43 44 50 51 54 55 58 61 71 74 76 76 76 75 75 74 75 75 75 75 74 74 74 74 74 73 73 72 72 73 72 73 73 72 72
59 52 58 56 49 43 44 44 43 45 46 45 41 39 40 43 44 46 49 51 53 61 70 75 77 76 76 75 75 75 75 75 75 75 73 73 73 73 73 73 73 73 73 73 74 74 73 73 72
56 61 54 48 44 44 42 40 39 40 41 40 37 37 39 42 44 44 46 46 51 60 69 75 77 76 76 75 74 75 75 74 74 74 73 73 73 73 72 72 73 73 73 73 74 74 73 74 73
57 56 49 42 42 44 39 36 37 38 38 35 34 34 38 42 43 42 45 45 50 56 68 73 75 75 75 74 74 73 72 72 72 72 73 74 72 71 71 72 71 72 73 73 73 72 73 72 73
55 52 42 38 39 38 37 35 32 33 34 33 31 34 39 42 42 41 43 47 52 55 67 71 74 74 73 72 71 71 70 71 70 70 71 72 72 72 72 70 70 70 71 71 72 72 71 71 72
56 51 39 39 41 38 34 33 27 34 31 31 30 33 37 39 44 39 41 47 49 49 53 68 68 71 72 71 71 70 69 68 69 67 67 69 73 70 68 71 69 69 70 70 71 71 71 71 70
56 52 42 41 41 40 34 34 28 37 31 32 31 32 35 39 40 39 39 40 42 45 47 50 55 54 58 62 67 66 69 67 64 66 64 66 63 65 64 68 67 70 70 69 71 70 69 71 71
57 49 40 39 43 41 33 31 30 33 31 34 37 38 39 39 39 37 37 39 41 41 43 44 45 45 44 43 51 56 59 61 59 57 59 54 50 53 54 62 66 67 69 67 70 69 69 71 71
49 43 42 42 40 40 34 31 29 31 34 37 38 37 36 37 37 36 35 36 37 37 37 38 39 40 41 36 37 38 39 41 41 42 43 45 47 51 53 57 62 63 64 64 65 69 70 69 69
43 44 44 40 38 40 33 30 29 30 35 37 38 35 35 34 35 33 33 35 37 36 36 34 33 35 37 38 39 39 39 40 42 41 40 44 44 45 44 47 49 53 57 53 55 55 59 62 67
37 40 38 42 37 39 32 32 31 31 39 36 37 35 34 32 32 32 33 34 35 35 33 30 30 31 35 42 41 40 38 38 39 39 39 43 43 41 40 41 44 46 48 46 48 50 50 52 65
32 35 36 37 37 33 32 32 31 36 40 39 36 35 33 32 32 32 32 33 34 33 31 29 27 28 31 36 39 40 39 37 39 41 40 42 42 41 42 41 42 42 43 42 42 41 42 45 49
33 33 34 34 31 34 31 32 35 35 40 38 35 35 33 33 32 32 32 32 30 30 27 27 26 26 30 34 37 39 39 39 41 41 39 40 41 41 42 42 41 41 42 41 42 42 42 43 46
33 29 32 30 30 30 32 33 34 35 37 33 33 33 34 34 34 32 32 32 29 28 26 27 27 27 29 32 37 38 37 37 37 37 37 38 42 41 40 42 41 41 41 42 43 43 44 45 46
26 27 30 28 29 31 31 28 33 33 34 32 32 32 35 34 33 31 32 31 30 27 25 28 28 27 28 30 33 32 34 35 36 35 38 37 40 40 40 42 42 41 42 44 44 44 45 45 45
29 22 25 29 28 30 29 29 33 35 34 33 32 32 33 34 32 30 30 29 29 26 24 27 28 26 27 28 29 31 32 34 34 34 36 34 40 40 40 42 42 41 42 42 43 42 43 42 43
24 21 20 23 28 27 30 28 35 35 33 33 32 32 32 33 32 30 28 27 27 26 25 25 28 26 26 30 30 33 33 33 34 34 35 33 38 38 40 42 41 41 41 41 41 40 42 43 44
27 23 22 23 28 28 27 27 29 34 35 34 33 32 32 32 34 32 29 25 25 25 24 25 27 26 28 31 31 31 32 31 34 34 33 33 36 37 38 41 40 40 40 39 40 41 40 42 44
25 23 21 24 29 29 29 28 27 27 34 34 33 32 32 33 33 33 30 25 24 24 23 24 25 28 29 32 32 31 29 32 33 37 34 35 34 35 35 34 37 37 39 38 39 39 40 41 42
26 23 21 20 30 28 28 27 26 25 25 33 34 33 33 33 32 32 30 27 26 24 25 25 25 27 30 29 32 33 33 35 35 34 35 35 32 34 33 33 34 34 36 37 37 38 38 38 39
22 26 23 26 25 22 26 22 23 22 26 24 28 33 33 33 33 33 30 27 24 26 27 27 27 25 28 30 31 31 32 32 32 33 34 33 32 31 32 32 33 34 35 34 35 34 36 37 38
26 33 31 29 26 25 24 24 22 24 25 24 24 28 34 34 33 34 32 29 24 26 28 27 27 26 28 27 31 33 33 33 34 32 31 30 31 32 32 32 32 33 35 34 35 36 36 36 36
31 30 33 32 29 25 22 22 21 22 21 24 25 27 32 34 33 35 33 33 26 28 32 32 29 28 29 30 30 31 31 31 31 31 31 32 33 34 33 32 32 33 34 35 36 35 35 36 38
31 28 26 28 29 25 22 19 19 22 23 21 24 28 31 33 34 35 32 33 30 31 34 33 33 33 30 30 29 27 30 31 30 29 30 30 31 33 33 33 33 33 34 35 36 36 35 36 38
28 26 23 18 21 22 24 22 20 21 24 24 27 29 32 33 34 34 32 33 31 31 33 32 32 32 30 28 27 27 26 33 32 30 31 31 32 32 34 33 34 32 32 33 34 35 35 35 39
28 27 27 23 21 20 20 20 20 19 23 25 25 28 33 33 34 33 32 33 33 31 31 32 32 31 30 28 26 22 21 24 30 29 29 31 31 33 32 33 33 33 33 34 34 35 34 40 43
26 31 26 26 18 15 16 16 21 19 21 21 23 27 32 34 33 32 31 32 33 31 31 31 30 29 29 27 23 21 22 23 25 28 29 29 31 32 33 33 33 33 33 33 32 34 38 41 42
28 27 27 27 21 16 13 18 17 16 16 21 21 24 30 34 33 31 30 30 32 31 30 29 27 26 25 24 22 22 23 24 23 24 27 28 31 30 31 31 32 32 32 31 32 35 38 38 39
26 24 25 21 19 21 19 19 22 23 15 17 19 24 29 33 34 32 30 29 29 29 27 26 25 24 25 25 22 22 23 24 24 24 24 27 27 29 30 30 30 30 32 32 33 35 36 38 39

GFSSGP_sfc_dewp_006.txt.gz
Dewpoint
68 66 62 60 48 48 46 46 50 50 47 50 54 54 53 54 53 51 62 70 71 72 75 75 76 75 74 74 74 74 74 74 74 74 74 73 73 73 73 73 73 73 72 72 72 72 71 71 72
67 65 59 54 46 42 43 44 46 48 48 50 48 48 47 48 49 50 56 70 72 73 75 74 75 75 75 74 74 74 74 74 74 73 73 72 72 72 72 73 73 73 73 73 72 72 72 71 72
58 61 49 48 43 43 42 43 44 46 47 44 40 42 42 44 46 46 59 70 74 74 74 74 75 75 75 74 74 73 73 73 73 73 72 70 69 68 68 70 72 72 73 74 73 73 71 71 72
52 53 50 41 38 41 42 41 44 43 41 41 41 39 40 42 45 46 65 70 72 73 74 75 75 75 75 73 71 71 71 70 70 70 70 69 68 68 66 66 67 67 69 71 72 73 73 72 71
54 51 41 38 38 39 38 40 43 43 38 38 38 38 39 42 44 48 62 69 71 72 73 73 74 74 73 71 69 68 69 67 67 68 70 70 66 68 68 67 67 67 67 67 67 70 72 72 72
50 47 36 34 37 38 34 35 33 37 35 36 37 37 38 42 43 48 55 67 71 73 73 73 74 72 71 68 67 68 64 62 62 63 63 64 64 64 64 66 68 67 68 68 66 67 69 71 72
48 44 36 35 35 35 34 33 27 32 32 31 37 35 38 39 41 49 47 57 66 72 72 69 69 70 70 69 68 64 60 60 59 61 61 60 60 60 61 61 63 63 63 64 67 67 68 67 71
52 46 40 36 34 33 34 30 31 30 30 34 36 35 36 39 41 48 46 46 51 64 68 67 65 62 61 55 62 59 59 57 57 58 57 55 55 55 57 59 60 61 60 61 61 64 68 67 67
49 39 34 35 36 37 33 27 32 34 35 39 39 35 37 39 41 41 41 42 43 45 49 47 42 43 43 41 48 52 55 54 54 52 53 48 46 48 48 55 57 58 57 57 58 58 57 57 59
41 32 32 39 38 32 32 27 28 33 36 37 36 37 38 38 39 40 41 40 38 38 37 38 37 38 39 38 38 38 41 40 40 41 41 42 43 46 47 50 54 55 55 54 54 55 54 51 52
40 37 41 38 40 35 31 29 31 33 34 37 35 36 37 37 37 39 40 40 37 35 35 34 36 38 41 39 37 37 37 39 39 39 39 41 42 43 43 44 45 46 50 45 45 45 45 45 49
34 38 37 39 38 35 32 32 27 34 33 37 36 36 37 36 37 37 39 38 36 32 32 33 35 37 38 41 38 37 37 37 38 38 38 40 41 41 42 42 43 44 44 43 44 44 44 44 46
31 33 35 37 33 32 34 29 28 30 37 37 36 35 34 34 34 36 38 37 34 31 29 31 33 35 36 37 37 35 36 35 37 37 38 40 41 39 41 42 43 42 42 43 43 44 43 43 43
31 33 35 35 33 31 31 31 31 32 37 36 34 34 33 33 33 35 37 36 33 30 27 28 31 33 35 35 36 33 35 34 35 37 37 39 40 39 41 42 42 42 41 43 43 41 42 42 42
32 30 32 31 31 28 30 28 30 33 36 34 33 33 33 33 34 34 36 36 33 30 27 26 30 33 33 33 36 34 34 34 32 35 34 38 40 38 39 41 41 41 40 41 41 41 41 42 42
26 26 24 27 30 30 27 24 28 35 37 34 34 33 33 34 34 34 35 35 31 27 26 26 30 32 31 32 33 32 33 33 32 34 33 35 40 38 38 41 40 41 41 42 40 41 41 40 41
25 19 23 24 31 31 24 23 27 35 38 37 35 34 33 34 34 33 34 33 30 25 25 26 28 31 30 30 30 32 31 32 32 33 32 32 37 38 37 39 39 40 40 40 40 39 41 38 40
19 21 20 21 26 30 29 26 27 34 37 36 36 35 34 34 33 34 33 33 28 24 25 27 27 28 28 29 30 32 31 32 32 32 33 30 35 35 35 36 37 39 39 38 39 37 39 39 39
21 22 21 22 25 28 28 27 27 30 36 35 34 34 33 33 34 34 33 31 28 25 25 27 27 26 29 30 29 29 29 30 32 32 32 30 33 34 32 35 37 37 37 36 38 38 38 37 39
25 22 21 24 26 27 27 27 28 31 34 35 34 33 33 33 33 34 33 30 28 25 24 25 26 27 28 30 30 30 29 30 31 34 34 32 32 33 32 34 34 36 35 34 34 36 36 39 38
26 23 22 21 25 26 26 26 26 29 30 32 34 33 33 32 32 34 32 30 28 25 24 23 25 27 30 30 32 32 32 32 32 33 32 32 33 33 32 31 33 32 34 34 34 35 34 34 37
23 27 25 25 23 20 25 17 21 24 25 28 30 32 34 33 32 34 32 30 26 26 25 24 26 27 29 31 31 30 31 29 31 31 32 32 31 30 31 31 30 31 33 33 34 35 35 36 35
24 29 27 26 23 25 22 21 25 22 21 21 22 25 32 34 33 33 33 29 26 25 25 25 25 28 29 30 32 31 31 32 32 32 30 29 30 31 31 30 30 31 33 34 33 34 34 35 35
28 28 29 31 26 21 21 21 16 18 19 19 18 21 25 34 33 33 33 29 25 24 25 26 26 27 29 30 31 31 30 31 32 31 31 31 32 33 31 31 31 32 33 32 34 33 33 33 35
28 24 20 20 22 19 21 21 18 16 17 19 18 20 26 34 33 34 32 29 26 25 25 27 27 28 28 29 30 31 31 30 30 30 30 30 31 31 30 30 31 33 33 34 34 32 32 33 34
27 23 21 16 18 14 24 20 16 22 19 18 21 23 26 34 33 34 33 31 27 25 25 26 26 27 27 28 30 30 31 32 31 30 32 31 31 30 31 31 32 33 34 34 33 34 35 35 35
24 25 23 17 19 18 21 23 19 23 22 23 23 23 29 34 33 34 33 31 29 26 25 26 27 27 27 28 29 28 27 28 31 31 30 31 30 31 32 32 32 33 34 34 34 35 34 35 37
25 26 23 24 17 15 16 16 16 17 17 19 23 26 29 34 34 34 33 32 29 27 26 26 27 27 28 28 28 27 25 25 27 28 29 30 30 31 31 31 32 34 34 34 33 34 35 37 37
26 25 26 25 23 17 15 16 20 17 18 17 19 24 28 33 34 34 34 33 30 26 27 28 28 28 29 29 28 26 25 23 23 25 26 27 28 29 30 32 33 32 32 32 32 33 35 35 35
24 23 23 23 20 22 19 17 18 18 18 19 19 22 29 34 35 34 33 33 31 28 28 28 28 29 30 30 28 26 25 24 23 23 24 26 26 28 29 30 31 31 32 32 32 34 33 34 35

GFSSGP_sfc_dewp_009.txt.gz
Dewpoint
68 66 61 59 48 48 45 46 50 49 48 51 55 54 54 52 52 48 64 68 71 73 75 74 75 74 74 74 74 74 74 74 73 73 72 72 72 72 73 73 73 73 73 72 72 72 71 72 72
66 63 58 54 44 41 42 44 46 48 50 51 45 48 50 50 50 54 67 70 71 73 74 74 74 75 74 74 73 73 73 72 72 71 70 70 67 68 70 71 71 72 73 73 73 72 72 71 72
59 59 49 46 44 41 42 43 46 49 50 45 41 42 44 44 47 47 62 73 73 73 74 73 74 75 74 74 73 72 71 71 70 70 69 68 66 65 66 67 67 69 71 72 73 73 72 71 71
53 52 47 40 38 41 43 43 46 47 43 42 41 39 41 42 44 58 69 73 72 73 74 75 74 74 73 71 71 71 69 67 68 69 68 67 68 67 66 65 65 66 67 67 71 72 73 72 71
54 49 40 39 38 38 39 43 44 43 38 40 40 39 40 43 49 66 69 72 71 72 73 73 73 72 70 69 68 66 64 64 66 69 66 65 67 66 66 66 66 65 66 65 67 68 71 72 72
48 44 36 35 36 36 35 38 41 40 36 37 38 38 39 41 54 63 68 70 72 72 73 73 73 71 69 66 64 63 62 63 64 64 63 63 63 63 64 64 64 64 64 65 66 67 66 68 71
46 40 35 35 36 36 35 33 29 34 34 35 38 38 38 39 46 55 65 69 71 72 72 71 69 68 69 68 61 61 60 61 61 60 59 59 59 60 61 62 62 62 63 62 64 67 65 62 68
51 44 39 35 35 34 35 32 30 32 31 36 36 35 38 39 45 49 58 64 68 69 68 65 63 61 53 56 61 60 58 58 58 57 56 55 55 55 58 59 59 59 59 60 60 60 59 58 62
47 39 35 33 35 35 34 27 31 36 34 37 37 36 38 40 46 44 46 48 57 63 62 58 54 51 43 46 54 55 56 55 53 51 52 48 46 48 50 55 56 56 56 56 56 56 56 55 57
36 33 34 38 39 36 34 27 29 33 35 36 35 37 39 41 43 43 43 46 50 51 45 42 41 38 38 37 38 40 41 40 40 39 40 42 42 47 47 51 52 53 53 53 53 53 52 50 49
41 32 33 39 37 37 33 30 31 33 34 35 35 36 38 40 42 43 42 43 44 43 38 37 37 39 38 37 37 37 38 39 39 37 40 41 41 42 43 44 44 44 49 44 45 44 44 44 46
34 38 39 40 37 34 31 30 26 33 31 36 36 37 38 38 41 42 42 40 38 35 35 36 37 39 40 41 37 37 36 37 37 37 39 40 40 40 41 42 42 42 43 42 43 43 42 42 43
33 32 37 37 35 32 33 30 29 29 33 38 37 37 37 37 39 40 41 40 37 34 33 34 36 37 37 36 36 37 38 36 37 37 39 40 39 40 41 41 42 41 41 42 41 41 41 41 42
32 32 33 35 33 31 30 31 29 28 33 36 36 36 36 36 37 37 39 39 36 33 31 33 35 35 36 36 34 34 35 35 37 37 39 40 39 39 41 41 40 40 40 41 40 40 41 39 41
33 29 30 32 33 30 30 28 30 29 36 35 35 35 35 35 36 35 37 38 36 32 29 30 33 35 34 34 33 34 35 34 36 35 36 40 39 38 40 40 39 40 40 40 39 38 40 38 39
28 26 25 27 31 30 27 22 27 31 35 35 34 33 33 34 34 34 37 38 35 32 27 28 32 33 33 34 35 32 34 32 35 34 34 39 39 37 38 39 38 40 40 40 39 39 39 37 38
24 19 22 24 30 29 26 23 25 29 35 34 34 34 33 33 33 34 35 37 36 32 26 27 32 32 33 32 32 32 32 32 33 33 32 35 38 37 36 38 37 39 39 39 39 37 39 37 37
19 21 20 20 22 30 28 25 26 32 37 34 34 34 34 33 33 34 34 35 35 30 27 26 30 31 30 31 31 32 32 32 32 32 32 31 35 36 34 35 36 38 38 36 38 35 37 37 37
19 21 18 20 23 28 28 27 27 28 36 36 36 36 35 34 34 34 34 34 31 27 25 26 28 29 29 30 30 30 30 30 32 33 33 31 33 34 32 34 35 37 36 35 36 36 36 35 38
27 22 21 23 24 27 26 26 28 28 32 31 34 35 35 35 35 35 34 33 31 27 25 26 27 28 29 31 30 29 29 30 31 34 33 33 32 33 31 32 33 35 35 33 33 34 35 37 37
26 24 22 19 23 26 26 24 26 28 29 31 33 32 33 34 34 34 34 33 31 27 25 25 26 27 29 30 32 31 32 32 33 33 33 32 32 33 32 31 32 32 33 34 33 34 34 33 35
22 28 27 25 24 22 25 17 18 24 26 28 29 30 33 34 34 34 34 33 31 28 26 25 27 26 29 31 31 30 31 29 31 32 32 32 31 30 30 31 31 31 33 33 33 35 34 35 34
27 28 29 29 25 25 23 20 23 22 21 21 21 26 29 31 34 33 33 34 32 30 25 25 27 27 28 30 31 31 30 30 31 31 30 30 30 30 31 30 30 30 32 32 32 32 33 35 33
29 27 29 30 26 21 21 21 17 14 19 19 20 21 22 25 30 34 33 34 33 30 27 26 26 27 29 30 31 30 30 31 31 31 31 31 31 32 31 30 30 31 32 32 32 33 32 31 33
27 23 22 20 22 19 20 20 17 16 19 19 19 19 19 21 28 34 33 34 32 30 28 27 27 28 29 29 30 30 30 30 30 31 31 31 31 31 31 30 30 31 32 33 33 33 32 32 32
26 23 21 17 17 14 23 20 16 20 21 21 20 19 20 23 33 34 34 34 30 28 27 28 27 27 28 29 30 30 30 32 32 31 32 31 32 31 30 30 31 31 32 33 34 34 34 34 34
23 24 24 20 19 17 16 20 20 23 24 24 23 23 24 24 33 34 34 33 30 26 26 27 27 27 28 28 29 29 30 32 32 31 30 32 31 32 31 31 31 32 32 33 34 34 33 34 35
24 26 22 23 18 17 17 16 16 17 16 17 21 22 24 27 32 34 34 33 30 26 26 27 27 27 27 28 28 28 28 29 30 30 30 31 31 31 31 32 31 31 33 33 32 33 34 35 36
27 25 25 24 23 19 17 18 19 18 19 18 18 18 22 24 30 34 34 33 31 28 27 26 26 26 27 27 28 28 28 27 27 27 29 30 30 30 30 30 31 32 32 31 31 31 33 34 34
30 25 28 26 25 25 21 20 19 18 19 19 19 20 22 27 31 34 34 32 31 28 28 27 27 26 27 28 28 28 27 26 24 25 25 27 27 29 29 29 30 30 31 31 31 32 32 33 34

GFSSGP_sfc_dewp_012.txt.gz
Dewpoint
68 64 61 57 49 47 45 48 49 47 48 51 54 53 52 52 52 47 64 68 72 73 74 74 74 74 74 73 73 74 73 73 72 71 72 71 71 72 72 73 73 73 73 73 72 72 72 72 72
64 61 57 52 44 40 42 45 47 49 51 50 46 49 52 50 52 62 66 70 72 74 74 74 74 74 74 73 73 72 72 71 71 69 68 66 67 68 69 69 70 71 73 73 73 72 72 72 72
59 56 49 45 44 41 41 44 47 50 52 44 42 43 47 47 49 61 64 71 73 73 73 73 74 74 74 73 72 71 70 69 68 68 67 66 66 65 65 66 67 68 68 72 73 73 72 72 72
53 51 45 41 39 41 43 44 47 50 49 44 42 41 40 42 45 54 72 73 71 72 72 74 74 73 73 72 71 69 67 68 69 69 67 67 67 65 66 66 65 66 66 68 69 71 73 73 72
54 47 40 38 38 38 40 44 49 48 41 41 40 40 41 41 50 69 71 71 70 71 72 72 73 72 71 70 67 65 66 69 69 67 66 65 66 65 65 65 65 66 66 66 67 67 69 71 72
46 44 37 37 36 37 35 41 45 43 37 38 38 39 40 44 65 67 70 70 71 71 72 72 72 70 69 67 65 63 65 65 65 64 63 63 63 64 64 64 63 64 64 67 68 65 64 69 71
43 40 37 35 35 35 36 38 38 38 35 36 39 39 39 41 57 65 68 69 71 72 71 70 68 67 69 65 63 62 63 63 62 61 60 60 61 61 62 62 62 62 62 63 63 62 61 64 65
49 42 36 35 35 35 36 33 31 35 34 37 39 36 36 39 49 61 66 68 71 70 69 66 63 56 57 58 62 61 60 60 59 58 56 56 56 59 59 59 59 59 59 59 59 59 58 60 61
46 38 35 35 35 35 36 30 32 36 33 36 36 36 38 41 50 58 58 63 67 67 65 62 56 48 51 54 57 58 58 56 54 53 53 50 47 48 51 56 56 56 56 56 57 56 55 54 55
37 34 33 37 38 36 36 29 29 31 35 35 36 37 39 46 50 58 57 62 61 61 59 56 49 41 40 42 42 42 42 39 39 40 41 41 45 48 48 50 53 53 53 52 52 52 51 48 45
38 30 31 37 38 38 36 31 33 32 33 34 34 35 38 45 46 58 59 62 62 60 53 46 43 38 38 38 38 38 39 38 37 39 39 40 41 42 42 42 42 43 47 42 43 43 43 42 42
33 38 39 40 37 36 32 32 29 33 30 35 35 36 38 42 45 50 56 56 56 52 49 41 40 38 37 41 38 37 37 37 37 38 38 39 40 41 41 41 41 42 42 40 41 41 40 41 41
34 34 36 37 36 32 33 31 29 29 32 35 37 37 38 39 45 46 49 51 53 50 43 38 38 39 38 37 37 37 39 36 37 38 39 39 40 40 41 40 40 40 40 40 39 39 38 39 38
32 33 33 34 34 33 30 31 31 31 29 33 36 36 37 38 42 43 42 42 41 49 40 37 38 38 37 35 36 36 36 37 37 38 39 38 39 40 40 39 39 39 40 39 38 39 37 38 37
29 29 29 31 33 32 31 27 29 30 33 31 35 35 37 38 39 41 42 42 40 38 36 34 36 36 35 34 34 36 35 37 36 36 39 38 38 39 39 39 38 39 39 38 38 37 37 36 37
25 26 25 27 32 32 27 23 26 28 32 31 33 35 35 36 37 38 40 41 40 37 32 33 35 35 34 34 33 34 34 35 35 34 38 38 38 38 38 38 38 39 39 39 39 38 37 35 36
24 19 21 23 29 30 26 25 26 27 32 31 32 33 34 35 35 36 36 38 39 37 31 31 34 34 34 34 32 33 32 33 34 33 34 38 39 37 37 37 37 39 38 37 38 36 38 34 34
20 20 21 18 21 30 27 26 27 27 32 31 32 33 34 34 34 35 35 36 38 37 31 30 32 33 33 33 32 32 32 32 33 33 32 34 38 36 35 35 36 38 37 35 36 33 36 36 36
20 20 19 18 23 27 27 27 26 27 33 32 33 34 34 34 35 35 34 35 37 34 29 28 31 32 32 31 31 31 31 31 32 33 33 31 34 35 32 34 35 37 35 34 36 36 35 34 37
27 25 23 23 24 26 25 23 24 26 28 29 30 31 34 35 34 35 34 34 34 33 30 27 29 31 31 31 31 30 29 30 32 34 33 33 32 34 32 32 33 35 35 33 32 33 34 35 36
25 25 23 22 24 24 25 21 21 26 27 30 30 30 30 32 34 35 34 34 34 33 31 28 28 30 31 31 31 31 32 32 32 33 33 34 32 33 32 32 32 33 33 33 32 33 33 32 34
22 25 25 25 24 20 24 16 15 19 22 26 28 29 30 31 32 34 35 35 34 33 31 30 28 29 30 31 30 29 31 30 32 33 33 33 32 33 32 31 32 31 34 33 32 34 34 35 31
26 29 28 29 26 25 23 21 17 20 19 20 21 24 29 30 31 33 34 35 35 34 31 29 28 28 29 30 31 30 30 30 31 32 31 31 31 30 30 31 30 31 32 32 32 31 33 34 32
29 27 28 30 25 22 21 21 16 17 17 18 18 20 21 23 27 32 34 34 35 35 32 29 28 28 29 30 30 30 29 30 31 31 31 31 31 31 31 31 30 31 32 32 32 31 32 31 32
27 23 22 20 22 20 20 20 16 17 18 18 18 19 20 21 21 27 33 34 35 34 31 29 29 29 29 29 30 30 29 29 29 30 30 31 31 32 32 31 30 31 31 32 32 32 33 32 31
25 23 21 17 17 16 21 19 17 20 21 22 21 21 21 21 22 25 30 34 34 33 30 29 28 28 28 29 30 30 30 31 31 31 32 32 32 31 31 31 30 30 30 32 33 34 34 33 33
24 24 24 20 19 19 19 20 20 20 20 22 21 22 24 25 25 30 33 35 34 32 30 29 28 28 28 28 29 29 30 31 32 32 31 32 31 32 31 30 30 31 31 32 32 33 33 33 34
26 26 23 24 19 18 19 19 20 20 20 24 28 29 29 28 25 25 33 35 34 31 30 29 28 28 28 28 28 29 29 30 31 31 30 31 31 31 31 31 31 31 31 32 33 32 33 33 34
33 30 27 25 24 25 26 24 23 28 29 28 29 29 34 35 33 27 28 35 34 29 28 28 28 28 28 28 28 28 29 29 30 30 30 30 31 31 31 31 32 31 31 31 30 30 32 32 33
34 33 34 31 28 28 27 25 29 28 24 22 23 30 35 37 37 34 32 34 32 29 27 27 28 28 28 28 28 28 29 29 29 28 28 30 30 31 30 30 30 30 31 30 30 31 31 32 33

GFSSGP_sfc_dewp_015.txt.gz
Dewpoint
68 62 63 61 54 51 49 49 49 49 49 51 56 54 51 53 51 47 66 67 69 70 73 73 74 74 73 72 73 73 74 73 72 71 69 71 71 71 72 72 73 74 74 73 73 73 72 73 73
63 60 61 56 49 44 44 47 50 50 51 53 52 53 53 51 54 64 66 69 70 71 72 72 74 75 74 74 73 72 71 70 69 68 66 67 67 67 68 69 70 70 73 73 73 73 72 72 72
59 54 57 51 47 44 43 46 50 50 53 45 45 44 50 50 50 64 65 70 71 71 72 73 74 75 74 73 71 70 70 69 68 68 67 67 66 66 66 66 67 67 69 71 72 73 73 72 72
56 56 48 46 42 43 44 46 49 52 49 47 43 45 43 47 53 61 69 70 70 71 72 73 74 74 74 71 71 69 69 69 69 67 69 67 66 67 66 67 67 67 67 69 69 71 72 73 73
55 51 45 42 40 40 43 45 51 50 46 41 42 42 43 42 47 64 70 70 68 70 72 71 74 74 72 71 68 68 69 70 68 66 66 66 65 65 65 64 65 66 68 69 66 67 70 72 72
52 48 42 40 40 38 37 44 50 48 40 40 40 42 43 44 59 69 71 69 69 70 71 71 73 72 71 67 66 67 68 67 66 65 64 64 64 64 64 64 63 64 65 65 64 64 67 68 69
48 47 42 41 39 38 38 43 47 47 38 39 40 41 41 42 63 69 69 69 70 70 71 71 68 69 70 66 65 65 65 64 63 62 62 62 62 63 63 62 62 62 62 63 62 61 63 64 65
51 47 38 39 39 39 38 41 38 43 43 39 41 39 40 42 63 68 68 69 70 71 71 69 65 63 60 60 64 63 62 61 61 59 58 59 60 60 60 59 59 59 59 60 59 58 58 60 61
47 43 37 39 38 40 37 36 32 35 35 37 39 37 39 43 61 66 67 67 66 69 69 66 61 59 58 58 59 61 60 59 57 55 55 51 51 54 55 56 56 57 57 56 56 55 53 52 55
43 40 37 40 40 39 38 35 32 33 34 36 36 38 40 48 61 63 64 63 64 65 67 63 57 55 55 54 53 52 48 43 43 41 44 46 48 49 50 53 54 53 53 53 53 51 49 46 43
37 37 34 34 41 40 37 33 33 34 35 35 36 37 40 47 59 62 62 62 63 64 65 61 52 51 52 48 43 40 39 38 39 39 40 41 42 42 41 44 43 43 45 40 41 39 41 43 42
35 38 39 41 40 35 34 32 32 36 37 35 37 37 40 46 53 60 61 62 63 65 65 60 49 44 45 44 40 40 38 37 37 39 39 41 41 40 39 40 41 42 40 39 38 37 38 38 39
35 35 36 40 40 37 34 34 33 32 34 34 37 38 39 43 48 56 59 61 63 63 62 55 47 41 39 41 40 40 39 37 38 39 39 41 43 41 41 39 40 40 39 37 37 36 35 34 32
32 33 34 35 35 35 32 35 33 34 33 31 35 36 38 40 45 48 55 58 60 61 59 52 46 40 38 39 40 39 41 38 40 41 39 40 42 41 41 39 40 40 39 37 36 34 34 35 31
29 29 32 32 33 34 34 32 31 33 32 31 31 34 37 39 41 45 47 53 56 59 58 49 46 41 38 38 39 41 41 39 40 41 39 40 42 40 40 39 38 39 38 36 36 36 33 33 33
26 27 28 28 32 34 31 27 30 30 31 32 31 31 36 37 38 40 44 46 50 55 55 49 44 41 38 38 39 38 38 39 39 39 40 39 41 41 40 40 40 40 40 40 37 36 35 34 33
28 21 23 24 28 31 30 30 31 28 29 30 29 30 32 34 37 38 40 44 45 47 50 47 43 40 39 37 36 36 36 38 37 37 40 40 40 41 40 40 40 41 39 39 36 37 36 34 34
17 21 21 23 23 29 30 29 30 30 29 30 28 28 32 32 33 36 38 41 42 43 43 45 42 39 38 37 35 36 35 36 36 35 38 38 40 39 39 40 40 39 39 39 38 35 37 36 36
21 21 21 22 23 23 23 23 25 27 30 32 31 29 29 30 33 35 37 38 39 41 40 38 39 37 37 36 34 34 34 33 35 36 35 38 39 38 39 38 38 41 38 38 38 38 36 36 37
27 25 24 26 27 25 25 23 24 26 25 26 28 28 28 29 31 34 36 37 37 39 39 36 37 38 36 38 35 33 32 33 34 38 36 37 38 38 36 37 38 39 39 39 37 38 37 37 37
26 23 22 20 24 25 25 21 23 25 26 27 28 29 28 29 29 31 35 36 38 38 38 37 35 37 37 37 36 34 34 34 34 35 36 36 35 38 35 35 36 37 37 37 38 38 38 34 36
24 26 24 23 23 19 24 16 20 18 20 26 29 30 31 32 32 33 35 37 37 38 39 37 36 35 36 37 35 33 34 33 34 35 36 36 34 35 36 34 35 36 36 36 37 37 37 37 32
27 28 27 27 26 25 24 22 16 22 20 21 22 25 29 31 32 31 33 37 37 38 38 37 35 35 36 34 37 36 36 36 34 34 35 35 35 34 35 33 34 34 36 35 35 36 36 36 34
30 27 28 30 28 24 21 21 17 17 18 20 21 23 25 24 26 29 32 36 38 40 41 40 36 35 36 36 36 37 36 34 34 34 34 34 35 35 34 34 34 35 35 36 37 36 36 36 34
27 25 21 19 23 20 22 21 18 19 20 20 20 23 27 32 32 31 29 31 36 41 42 39 38 36 35 35 35 35 37 35 34 33 34 34 33 34 34 34 33 34 37 37 38 36 36 36 35
26 26 21 16 15 17 21 20 18 20 23 28 31 31 32 34 35 35 35 35 34 37 41 39 36 35 34 34 34 34 36 35 34 34 34 33 34 33 34 35 33 33 34 35 36 37 37 36 36
26 25 26 23 25 22 22 22 23 23 27 27 25 23 25 30 33 36 38 37 36 35 37 37 35 34 33 32 33 32 32 34 35 34 34 35 33 33 35 34 34 33 33 34 36 35 35 36 35
33 31 26 27 22 19 21 22 23 26 28 27 24 22 21 30 35 37 38 38 37 35 36 34 33 32 32 32 32 32 32 32 34 34 33 34 33 33 35 35 34 34 33 34 35 36 35 35 35
24 22 20 27 26 24 22 24 29 27 28 20 15 23 25 33 36 37 38 38 37 36 33 32 31 31 31 31 32 32 31 31 31 31 32 33 34 34 33 33 33 33 33 32 33 33 33 34 34
25 29 22 21 18 22 21 19 24 26 17 16 24 23 26 29 34 38 37 38 39 38 34 31 31 30 31 32 31 31 31 32 31 30 30 31 32 33 32 32 32 32 33 32 32 32 29 32 34

GFSSGP_sfc_dewp_021.txt.gz
Dewpoint
67 60 62 64 58 53 49 48 46 47 46 47 48 47 45 44 44 52 65 63 57 62 65 70 75 73 74 73 74 72 72 70 70 70 70 70 70 71 71 71 72 73 74 73 73 73 73 73 73
60 59 62 59 50 49 48 45 45 46 47 48 49 49 46 42 49 61 62 64 58 61 65 67 75 74 73 74 73 72 71 68 68 68 68 68 68 68 69 69 70 72 72 73 74 73 73 73 73
60 58 56 52 45 42 46 44 45 46 48 48 46 49 44 43 47 55 60 64 61 61 64 71 76 75 75 73 72 71 70 68 68 67 67 67 67 68 68 69 69 70 70 71 73 73 73 73 72
55 55 49 46 44 46 43 44 46 47 48 47 45 41 46 48 49 54 61 63 63 63 64 73 75 75 73 72 71 70 70 69 68 68 66 67 66 66 66 67 69 69 68 70 71 71 72 73 73
54 52 47 44 42 42 43 44 46 47 47 45 45 41 43 48 54 58 61 62 63 63 64 67 75 74 72 72 70 69 69 68 68 67 65 65 65 65 66 65 66 66 65 66 68 69 70 71 73
46 45 40 37 37 38 42 42 45 46 45 44 43 42 43 49 52 60 60 61 62 61 62 66 74 74 72 71 70 70 70 68 67 66 66 65 65 65 64 64 64 64 64 64 65 67 68 69 72
43 40 36 33 33 34 37 41 41 43 44 44 43 40 41 46 51 59 60 59 59 57 58 60 66 72 72 70 70 71 69 68 66 65 65 64 64 63 63 62 62 62 63 62 62 64 65 66 68
47 40 34 33 30 32 31 41 42 41 39 43 43 38 36 42 50 58 58 57 56 54 55 55 64 69 67 65 69 69 68 66 65 64 63 63 63 61 60 61 60 60 60 60 59 59 61 62 63
46 32 27 28 29 31 30 34 34 39 40 39 42 41 41 42 49 55 57 57 55 54 55 54 58 64 63 62 65 66 66 64 63 61 62 60 54 55 55 59 58 57 57 56 55 54 51 54 57
34 28 23 25 32 31 31 30 32 30 32 29 35 38 41 42 50 54 55 55 54 54 54 54 54 58 61 59 61 58 56 55 53 49 49 43 46 49 52 55 55 54 52 50 48 45 44 48 44
26 26 20 27 25 30 28 26 26 30 33 26 26 30 37 41 50 52 53 52 52 53 55 54 54 55 58 57 57 52 51 48 43 40 39 39 45 47 47 48 46 43 44 37 39 38 37 39 41
28 21 25 27 27 30 27 26 25 28 29 28 28 34 34 40 43 50 50 50 50 51 55 56 55 54 55 57 54 51 47 39 36 37 35 39 39 38 37 37 39 41 37 35 35 34 35 35 31
26 24 25 27 28 29 29 28 27 27 25 24 27 29 36 35 39 41 47 48 49 50 53 56 57 54 53 54 54 52 43 35 35 36 36 38 40 37 37 37 37 37 36 34 34 33 32 30 27
27 29 25 25 24 25 24 26 28 25 25 24 25 26 25 33 35 37 40 45 46 47 49 54 58 55 52 52 52 50 43 38 37 39 38 37 39 38 38 37 38 37 35 34 32 31 32 31 27
28 25 22 21 19 23 28 26 24 24 25 23 21 18 22 23 28 32 35 38 43 44 47 50 56 58 53 51 51 52 47 41 39 40 38 38 40 38 38 37 37 35 34 30 31 28 30 32 29
23 21 18 20 25 24 27 19 16 19 22 20 17 13 15 18 20 23 30 33 36 40 43 48 54 57 56 51 51 48 45 43 41 39 39 38 40 40 38 38 37 37 37 36 35 34 34 33 31
17 15 15 13 20 19 23 23 21 19 18 20 18 17 16 15 12 17 20 27 30 34 39 44 51 55 56 52 48 46 44 45 42 39 40 40 41 40 39 39 39 39 39 37 36 36 34 34 34
10 8 7 9 10 17 16 17 17 17 18 19 17 17 17 16 16 13 14 20 25 30 34 40 47 53 55 53 48 46 45 45 43 41 41 38 43 41 41 42 41 39 40 39 38 35 34 34 33
14 13 11 13 16 17 18 20 21 23 23 24 23 20 19 18 20 20 22 19 20 28 32 37 42 48 54 53 48 46 46 45 45 44 41 41 41 42 44 43 41 43 42 40 39 36 36 36 34
18 18 20 21 20 21 22 23 24 24 26 25 22 19 21 23 24 30 30 32 33 30 32 34 37 44 51 54 51 48 45 46 45 47 45 44 43 42 41 42 43 42 43 42 40 43 38 35 34
21 21 21 20 23 24 23 21 20 17 22 22 27 30 31 31 30 31 32 35 37 37 38 36 37 39 45 54 53 51 48 48 47 46 45 44 42 43 41 41 40 41 42 42 43 43 45 38 36
23 25 25 24 24 19 21 17 20 17 19 26 29 29 26 26 27 29 31 33 33 36 40 41 39 37 41 49 54 52 50 48 46 46 45 43 42 41 40 39 39 39 41 40 42 39 41 41 36
23 26 26 27 25 25 23 20 16 19 21 25 27 25 23 21 22 24 26 31 32 35 38 40 41 39 41 40 52 54 51 49 47 45 44 43 42 41 40 37 38 39 40 39 39 38 36 38 36
27 28 26 26 27 23 18 18 15 16 21 26 27 27 27 21 20 24 26 27 28 35 40 43 40 41 43 46 46 53 52 50 47 44 43 43 42 41 39 38 38 39 40 40 40 39 38 36 34
29 23 16 15 25 21 16 15 15 18 27 25 20 20 18 18 20 24 26 29 30 37 39 39 41 44 40 41 45 46 52 50 48 46 43 43 41 40 40 39 38 39 42 42 42 41 39 37 38
28 24 18 13 10 11 18 16 11 20 23 19 13 9 10 19 25 27 28 32 31 34 36 37 38 40 41 39 41 43 47 50 48 47 44 42 41 40 41 40 38 37 39 40 40 41 41 39 38
21 19 25 25 21 16 14 12 12 12 15 10 6 7 10 18 25 27 29 30 30 32 34 36 38 40 41 38 38 39 40 45 48 47 46 43 41 40 41 40 39 37 38 39 40 39 38 36 36
21 12 10 12 6 3 -3 3 6 13 10 8 8 9 12 21 24 27 28 29 30 32 33 35 37 39 41 40 36 37 39 39 43 46 46 44 42 42 41 41 39 39 37 38 39 39 36 36 37
9 8 12 15 16 12 10 9 9 11 10 12 10 9 13 23 25 26 26 26 30 31 33 32 33 38 40 42 39 36 37 37 38 41 44 43 43 41 40 39 39 38 36 35 35 34 34 34 35
9 11 17 16 15 15 17 16 11 11 12 11 9 13 20 25 25 25 25 26 27 31 30 27 29 36 39 41 41 37 36 36 37 38 40 41 41 41 39 38 37 36 35 34 33 33 31 32 34

GFSSGP_sfc_dewp_024.txt.gz
Dewpoint
67 63 64 68 61 58 51 52 50 49 48 46 47 45 43 45 45 56 66 62 61 64 69 72 75 74 74 74 73 73 71 71 71 71 70 71 71 71 71 72 73 73 74 73 73 74 73 73 74
63 59 67 65 55 50 49 48 48 48 47 48 48 45 44 43 53 62 63 60 60 64 66 72 75 75 74 74 73 72 70 69 69 69 68 69 69 69 70 70 71 72 72 73 73 73 73 73 73
60 58 62 59 52 47 49 48 48 48 47 48 47 47 46 48 47 61 63 61 59 62 67 73 76 75 75 73 72 71 69 69 68 67 67 68 68 69 69 69 69 69 71 72 72 73 74 73 73
60 62 56 51 47 49 51 46 47 49 49 50 45 42 46 49 49 56 62 61 59 62 70 76 76 76 74 73 72 70 69 69 68 67 67 67 66 66 66 68 67 67 69 69 70 71 71 73 73
59 59 53 49 46 44 45 44 47 46 48 47 46 44 46 50 56 60 61 61 61 63 69 73 76 75 73 72 71 70 70 70 69 66 66 66 66 66 65 65 66 65 66 68 68 69 70 73 73
55 52 44 40 37 35 35 45 42 44 44 45 44 44 47 51 55 59 60 60 61 62 67 70 75 74 73 72 70 70 69 68 67 66 66 66 65 64 64 64 64 64 64 64 65 67 69 70 73
55 50 43 40 38 36 34 39 41 41 40 41 45 46 45 49 55 59 59 59 60 61 62 68 72 73 74 72 71 71 70 68 67 66 65 66 65 64 63 63 63 62 62 62 63 64 66 68 70
54 50 40 39 37 37 36 36 44 37 37 38 45 44 40 47 53 58 57 57 58 57 58 63 68 71 69 68 72 71 69 68 67 65 65 65 64 62 62 61 61 60 60 59 59 60 61 63 64
56 43 35 32 34 38 34 30 31 35 39 36 34 43 42 48 50 55 55 55 55 53 54 53 65 67 67 66 69 70 68 67 65 64 64 63 59 58 58 59 59 58 57 56 54 52 50 56 58
45 42 37 32 33 33 33 30 31 27 31 30 29 34 42 46 48 52 54 55 53 53 53 53 61 65 64 63 66 64 64 62 60 59 59 58 54 56 56 57 57 55 51 49 47 44 46 50 50
41 38 36 30 32 31 32 30 28 27 30 33 32 28 37 43 48 51 52 53 52 52 54 53 52 62 62 61 64 60 58 57 54 51 51 48 52 53 52 53 49 47 49 47 47 42 41 38 41
35 32 28 33 32 32 31 30 28 29 30 30 28 29 31 41 42 49 51 51 50 51 54 54 54 54 58 61 61 57 53 52 47 45 41 46 48 46 47 48 47 43 43 36 37 38 39 36 29
27 28 28 31 32 31 31 31 31 30 30 28 27 28 30 35 35 41 48 50 49 49 53 55 54 53 53 57 57 56 51 46 41 39 39 44 44 41 41 41 42 42 38 37 36 36 33 29 27
30 30 29 26 26 27 26 29 30 29 28 26 26 27 27 27 35 34 39 41 46 47 50 54 55 55 53 53 56 55 51 42 40 42 41 41 44 41 41 40 41 40 38 37 36 34 33 31 30
32 26 27 26 23 28 30 27 26 26 26 25 25 21 24 27 28 32 33 36 38 45 46 50 54 57 56 52 54 55 53 45 43 44 40 40 43 41 41 40 40 39 37 33 32 27 30 32 30
23 25 26 26 28 34 28 27 30 23 22 23 21 18 22 20 18 18 25 33 34 35 41 45 52 57 57 55 53 53 51 46 43 43 43 40 43 43 41 42 41 41 39 37 38 37 36 35 33
27 19 21 22 23 29 27 24 26 24 20 19 20 18 18 18 19 19 24 23 29 32 33 39 50 56 57 56 53 52 49 47 44 43 44 41 43 43 43 43 43 41 41 40 39 38 38 37 37
18 14 13 15 17 19 22 22 21 23 23 25 22 21 22 21 29 34 35 36 35 33 30 31 38 53 56 57 55 51 49 47 45 43 43 41 45 43 43 44 43 42 43 41 40 37 37 37 37
16 14 15 19 23 24 27 25 24 25 26 29 30 28 30 30 31 31 33 34 35 37 39 40 40 39 53 56 55 50 47 46 46 45 42 40 43 43 43 45 43 43 43 42 39 37 36 36 35
23 22 22 24 26 23 24 24 25 26 30 31 30 28 27 26 26 28 31 32 33 34 37 37 40 41 41 55 55 52 47 46 46 47 44 43 42 43 43 44 44 43 44 41 40 38 38 38 37
23 23 24 25 26 25 25 25 28 29 31 27 24 23 21 20 21 24 25 28 30 33 36 36 38 40 41 41 54 53 49 48 48 46 45 44 42 43 41 43 43 42 43 43 41 41 40 37 37
24 26 26 26 25 22 24 21 24 27 28 25 23 23 22 20 21 24 26 27 27 30 36 37 37 39 40 42 42 52 51 47 47 46 46 45 43 42 42 41 41 41 43 42 42 42 42 41 38
24 29 28 29 27 26 26 25 22 27 27 26 27 24 17 19 24 26 27 28 29 31 38 37 36 38 42 43 42 43 50 51 49 47 46 44 43 41 41 40 40 40 42 41 41 39 40 40 38
28 29 26 24 24 25 23 24 21 24 25 18 13 11 9 15 24 26 28 29 30 31 38 38 37 39 42 44 42 40 42 50 51 48 46 45 43 42 41 39 39 39 40 40 41 39 38 39 37
31 26 22 21 26 26 20 19 20 24 16 10 9 9 11 11 22 25 25 28 30 33 34 37 37 39 39 41 42 40 39 43 51 49 46 44 43 42 41 39 38 39 40 41 41 39 38 37 36
24 25 22 17 16 21 21 18 22 17 11 11 12 13 13 14 22 25 27 28 28 30 31 34 35 37 37 39 42 40 38 41 46 50 49 44 44 42 41 39 37 37 40 41 41 41 40 37 38
23 21 20 22 21 18 18 17 20 13 11 13 13 13 14 15 23 25 26 27 28 27 29 31 34 33 33 36 40 41 39 37 42 48 49 47 44 43 41 39 37 37 38 39 40 40 39 37 37
22 20 15 15 9 8 6 7 9 11 12 14 12 11 10 14 21 22 23 24 25 26 28 32 30 28 29 32 39 41 41 38 37 40 47 47 46 42 40 40 38 37 37 38 39 39 38 36 38
15 11 12 13 11 9 13 13 13 12 14 14 13 10 12 20 23 23 23 25 25 26 28 28 26 28 28 33 39 40 41 40 36 37 43 45 45 43 40 39 38 37 37 37 38 37 37 36 36
14 9 10 20 17 18 18 15 15 14 15 14 12 10 16 23 25 25 25 23 23 26 26 26 27 27 29 36 38 39 41 42 39 36 37 39 43 43 41 39 38 37 36 37 36 36 34 35 35

GFSSGP_sfc_dewp_027.txt.gz
Dewpoint
68 62 67 64 56 55 49 52 52 46 45 46 47 45 44 47 51 52 64 63 70 71 73 74 75 75 72 73 73 72 72 72 72 71 71 71 71 71 72 73 73 74 73 73 73 73 73 73 73
66 62 64 60 52 48 46 50 48 46 47 47 47 44 43 50 61 62 62 62 67 70 72 73 75 76 74 73 73 72 71 71 70 70 69 70 70 70 71 71 70 71 74 73 74 73 73 73 73
64 61 56 54 51 46 45 49 47 47 46 47 45 46 44 47 61 61 63 60 67 67 71 73 76 76 75 74 72 71 70 69 68 68 68 68 68 68 69 69 69 71 70 71 73 73 73 73 73
57 58 54 47 45 47 48 47 47 47 49 46 45 43 47 49 61 62 61 59 63 66 72 75 76 75 74 73 72 70 69 68 68 68 67 67 67 67 68 67 67 68 69 69 70 70 72 73 73
55 55 50 48 46 44 48 47 45 46 47 47 45 44 47 52 61 62 61 58 66 70 73 74 76 75 74 73 72 70 69 69 67 66 67 66 66 66 66 66 65 65 67 68 68 69 70 73 73
49 49 41 38 37 35 33 41 41 40 40 43 45 44 47 53 60 61 62 61 67 70 73 74 76 75 74 73 71 71 69 70 66 67 67 66 65 65 65 65 64 64 64 65 66 68 69 72 72
46 45 39 37 36 33 34 35 38 38 37 39 44 43 48 51 57 60 60 60 65 68 71 73 73 73 74 73 71 71 70 68 67 67 66 65 65 64 63 64 63 63 63 63 64 65 67 69 68
47 46 37 34 34 33 34 31 35 33 35 38 41 42 44 48 56 59 59 59 61 67 69 72 72 72 71 71 73 71 70 68 67 66 66 65 64 62 63 62 62 61 61 61 61 61 62 64 65
45 33 32 28 29 32 32 29 30 29 33 35 36 42 41 49 55 57 57 56 58 61 67 71 71 71 69 68 70 71 70 68 67 65 66 64 60 60 60 61 60 60 59 58 56 55 54 57 58
39 36 30 31 30 27 30 30 30 25 24 26 29 32 45 49 52 55 55 55 54 54 56 68 70 70 68 67 69 68 67 65 63 62 61 61 58 57 58 59 58 56 54 52 51 48 47 50 51
34 30 34 32 29 35 30 30 33 27 25 25 29 31 39 47 49 53 54 55 54 53 53 61 68 68 67 66 68 66 64 62 60 60 59 57 57 58 55 54 52 49 50 45 45 41 39 36 41
29 32 32 33 33 32 30 32 29 28 27 28 29 26 36 42 47 49 52 53 53 53 53 54 65 66 65 64 66 64 62 60 58 56 56 50 52 52 51 50 48 44 44 44 40 37 36 34 28
26 27 32 32 33 30 29 30 30 29 29 29 28 29 27 30 41 44 49 52 52 51 53 54 54 64 62 63 63 60 58 58 54 51 49 48 48 47 49 47 47 44 41 36 35 34 33 28 26
29 31 31 30 28 27 26 28 31 28 28 27 27 27 26 27 29 34 37 47 50 49 51 54 54 54 58 60 60 58 54 55 48 45 44 45 45 43 43 41 41 40 37 37 35 34 32 29 28
28 28 28 28 27 27 29 26 23 24 24 25 23 19 20 22 25 32 35 34 39 45 48 54 54 54 54 56 57 57 53 48 42 41 40 42 43 41 40 40 40 38 37 35 33 31 32 31 30
23 25 20 23 26 33 23 21 26 26 22 19 18 18 18 33 33 33 35 36 37 36 39 47 54 55 54 53 56 55 52 44 41 42 42 40 43 41 40 40 40 40 38 36 34 32 33 32 32
25 16 17 16 20 31 26 21 24 24 22 19 19 19 31 31 32 32 33 34 35 36 37 40 42 47 56 55 54 55 53 46 42 43 42 40 43 43 42 41 41 41 39 37 37 37 35 34 34
15 12 12 13 15 21 24 24 25 25 25 27 29 29 27 27 28 29 29 31 33 34 35 36 39 40 42 53 54 52 51 47 44 42 42 41 43 43 42 43 42 41 40 39 38 36 36 37 36
20 19 19 22 25 25 24 25 23 29 29 24 21 20 21 23 25 27 27 27 29 33 34 34 37 39 41 41 42 51 50 47 45 43 42 41 42 43 42 44 42 42 40 39 38 36 34 35 34
23 22 22 25 29 25 25 24 28 23 23 21 20 20 20 23 24 26 27 28 29 32 34 33 33 37 41 42 43 45 50 48 47 45 43 43 41 43 42 43 43 41 41 40 39 37 38 36 36
24 23 24 25 28 27 25 23 29 25 23 22 21 20 22 24 25 26 27 28 29 29 35 34 33 34 39 41 43 42 42 47 47 46 45 43 41 43 42 43 43 42 41 40 40 38 37 36 37
22 29 28 28 27 20 25 22 25 24 24 24 18 17 22 25 26 26 27 29 29 30 33 36 34 36 37 40 41 41 42 41 45 48 46 45 42 41 42 42 43 41 42 41 40 40 39 37 35
25 30 29 29 28 29 26 24 25 26 17 10 9 10 14 24 25 26 27 29 30 32 33 35 36 38 39 39 40 42 41 42 43 47 47 45 44 42 42 41 42 41 42 41 41 40 39 40 38
30 29 23 24 25 21 22 25 24 22 12 10 11 12 12 14 24 25 27 28 30 32 32 35 36 37 39 39 39 40 41 40 40 40 47 47 46 44 42 41 41 41 41 41 41 40 39 39 38
25 22 20 16 22 21 21 17 19 10 11 12 12 12 13 14 24 25 27 27 28 29 28 31 32 36 37 35 36 38 41 40 40 39 41 48 46 44 42 41 41 41 41 41 41 40 39 39 38
24 22 22 17 18 22 20 15 19 11 14 14 13 13 13 14 23 25 26 26 27 27 26 29 29 34 33 33 33 35 42 43 42 41 39 40 47 45 43 41 40 40 40 41 41 41 39 38 38
22 17 18 17 21 18 21 17 14 14 15 15 14 13 13 13 22 23 24 24 26 25 26 28 32 29 28 29 31 34 41 41 41 42 41 40 42 46 43 41 40 39 39 40 40 40 38 37 37
19 20 15 14 7 7 9 9 17 12 15 15 14 13 13 17 23 24 24 25 25 24 24 29 28 27 28 29 29 36 40 40 41 42 42 39 38 46 44 42 40 39 38 40 40 39 38 36 37
12 11 12 12 11 8 9 13 14 15 16 15 14 14 15 21 24 25 25 25 25 25 26 27 27 28 28 29 31 38 38 40 41 42 43 40 38 42 44 42 41 39 38 39 39 38 38 36 36
14 10 10 13 13 17 16 15 17 17 17 16 15 15 16 24 25 25 24 23 24 25 26 26 27 28 29 32 34 35 36 39 42 43 42 41 40 37 43 42 41 39 38 38 38 37 37 35 35

GFSSGP_sfc_dewp_030.txt.gz
Dewpoint
68 64 66 64 53 54 48 50 52 46 46 47 46 44 45 47 47 41 64 69 71 72 73 74 75 74 74 74 73 73 73 73 72 72 72 72 72 73 72 73 74 73 73 73 73 73 73 73 73
67 63 63 59 50 47 44 49 48 46 46 46 46 43 44 48 61 62 61 67 71 71 73 74 75 74 73 73 73 72 72 71 71 71 71 71 70 71 71 71 71 73 73 73 73 73 73 73 72
61 62 55 53 51 45 44 47 47 48 46 46 46 45 44 46 61 61 62 69 70 71 73 73 76 75 75 73 72 71 71 71 69 68 68 68 69 70 69 70 70 70 70 72 73 73 72 73 73
55 58 54 46 44 46 47 45 49 49 48 47 45 44 47 53 60 61 62 68 69 69 72 75 76 75 75 74 72 71 70 69 68 68 68 67 68 68 67 68 69 68 68 69 69 71 73 73 72
56 54 48 45 42 42 42 46 46 44 45 47 46 45 46 54 59 62 60 67 66 70 72 74 76 75 74 74 72 71 69 68 68 68 67 67 66 67 67 66 67 68 68 68 68 69 70 73 72
46 47 39 37 37 37 33 32 40 39 40 44 44 44 47 55 61 60 58 65 67 71 72 73 75 75 74 73 72 71 70 68 67 67 66 66 65 65 65 65 65 65 66 67 67 69 71 72 72
45 43 38 37 36 32 35 31 35 33 33 35 44 42 47 55 61 62 60 67 70 71 72 73 74 74 75 74 73 71 70 69 67 67 67 66 65 64 65 64 64 64 64 65 66 68 69 69 70
49 44 38 33 32 27 33 29 35 27 30 37 40 41 47 50 57 61 61 66 69 71 72 73 74 73 72 72 73 71 70 69 67 67 67 66 65 63 64 63 63 62 63 63 63 64 67 68 68
44 28 30 27 28 26 30 26 30 29 25 26 34 35 42 48 57 59 58 59 67 68 71 73 72 72 71 70 70 72 70 69 68 67 67 65 61 61 61 61 61 61 61 60 59 59 60 60 61
38 31 23 29 30 25 29 31 29 26 26 24 23 28 45 51 57 57 57 56 61 66 69 71 71 71 70 69 69 69 68 66 65 64 63 61 59 59 59 60 59 59 58 57 55 53 50 52 50
36 28 31 32 31 35 30 28 33 28 25 24 24 29 29 48 52 56 56 56 57 62 67 70 70 70 69 68 68 68 67 65 63 62 61 60 58 58 58 56 55 50 51 46 45 43 39 41 43
30 32 33 34 35 33 29 29 28 28 26 28 28 28 29 44 48 52 54 55 55 54 59 68 70 69 68 67 68 68 66 64 62 61 60 58 56 56 54 53 51 47 47 43 41 37 36 32 33
27 28 30 32 33 31 31 27 29 27 28 29 29 29 28 30 35 39 37 44 52 54 54 59 68 68 67 66 67 66 65 64 62 59 58 55 53 53 51 49 47 44 42 41 38 35 34 28 26
29 31 31 31 30 28 27 28 28 26 27 24 28 28 33 34 35 34 36 36 36 43 45 53 64 66 66 64 66 64 64 63 60 57 55 52 51 51 49 46 46 45 41 37 35 34 31 28 27
29 23 24 25 27 28 30 25 26 27 26 20 19 32 32 32 32 33 34 34 35 38 40 40 52 60 64 63 64 63 61 60 57 54 52 49 49 47 46 45 43 41 39 36 34 32 32 30 30
23 23 20 21 21 29 23 21 23 25 24 22 31 31 30 29 28 30 32 33 33 34 36 38 40 42 53 57 60 61 59 57 55 50 49 46 46 45 42 42 41 41 38 37 35 33 33 32 30
21 15 17 15 19 26 26 22 26 26 25 27 27 26 26 27 27 27 28 31 34 34 33 35 38 39 40 52 54 55 55 51 50 45 44 43 45 44 42 41 41 41 39 37 35 34 33 33 33
17 13 12 13 17 26 25 25 25 28 27 24 23 23 25 25 27 28 29 29 32 34 33 32 36 40 40 40 41 48 52 51 46 43 41 40 43 43 41 42 41 40 40 38 37 34 36 35 34
20 19 20 22 26 26 25 26 23 21 20 21 21 22 24 25 27 28 29 29 30 32 34 32 35 38 40 41 41 42 43 50 49 46 43 41 41 43 41 43 41 41 40 38 37 36 34 35 35
26 23 22 25 29 25 24 24 23 21 22 21 21 23 24 25 26 27 28 29 30 30 33 34 34 38 39 43 43 42 42 47 48 49 45 44 42 42 42 42 41 41 41 38 37 36 36 35 35
24 22 24 24 28 26 25 26 23 23 18 15 19 23 25 25 25 26 28 29 30 31 32 32 35 37 38 40 42 41 42 43 45 45 47 46 43 42 42 42 42 41 41 39 38 37 36 35 36
22 29 29 28 27 20 26 19 25 23 13 11 10 14 23 25 25 27 27 28 29 31 30 33 34 35 37 38 40 41 41 41 41 43 47 47 46 42 43 42 42 41 41 40 39 38 37 37 35
25 31 29 29 27 27 26 24 27 17 11 11 11 12 13 24 25 26 26 27 28 30 29 31 33 33 37 36 37 38 38 42 42 41 41 43 47 46 42 42 41 41 41 40 39 39 38 37 36
27 24 22 28 26 20 21 25 24 13 10 12 12 13 12 14 24 26 27 27 28 29 28 29 31 33 36 35 34 33 33 38 41 41 41 42 43 48 45 42 41 41 41 41 40 39 38 38 37
23 22 16 13 19 16 22 17 17 10 12 13 12 13 13 13 23 25 24 25 27 27 27 27 30 31 33 31 31 32 33 38 42 42 42 40 41 41 45 44 42 42 42 41 41 40 39 38 38
23 22 16 5 13 18 22 12 10 13 14 14 14 14 14 13 20 24 24 24 25 26 25 27 29 29 29 29 30 31 32 40 42 42 41 42 42 41 41 44 44 42 41 42 41 41 40 39 39
18 17 22 16 18 16 18 11 11 14 15 16 15 15 17 15 20 23 24 24 24 25 25 26 28 28 28 28 29 29 31 40 40 40 40 43 43 42 39 40 44 43 41 41 41 41 40 40 39
16 20 17 15 5 5 9 11 14 12 15 17 14 15 16 16 21 24 25 25 25 25 25 27 27 27 28 29 29 30 33 37 38 39 41 43 43 40 40 40 41 44 42 41 41 41 40 39 39
12 10 13 13 12 6 7 9 14 15 17 15 15 16 17 18 24 24 24 25 25 25 25 26 27 27 28 29 30 32 34 34 36 37 38 44 42 42 41 40 39 43 43 40 40 40 40 39 38
12 10 11 12 7 16 14 14 17 17 16 16 16 17 17 23 25 26 26 26 25 26 26 27 27 28 29 30 32 34 32 33 34 34 38 43 42 42 42 41 41 42 43 41 39 39 39 38 37